KUIPER-00065

Last updated on Thu Jul 03 2025 00:02:08 GMT+0000 (Coordinated Universal Time)

1 64525U 25134AB 25183.58335648 .00000098 00000+0 14209-4 0 9994 2 64525 51.8707 287.0141 0009219 146.1503 287.2307 15.34447662 2436
UTC large
Height (km)
Speed (km/s)
/
Latitude / Longitude
Inclination (degrees)
Orbital Period (minutes)
Azimuth
Elevation
Range (km)
Doppler Factor

Next 0 passes for location: London (51.5072 / 0.1276)

Sorry there are no passes over London.